Year,Month,Day,Hour,Minute,Value (Times are PST for temperature in C)
2007,05,03,00,00,7.20
2007,05,03,00,01,7.10
2007,05,03,00,02,7.00
2007,05,03,00,03,7.00
2007,05,03,00,04,6.90
2007,05,03,00,05,7.00
2007,05,03,00,06,7.00
2007,05,03,00,07,7.00
2007,05,03,00,08,7.00
2007,05,03,00,09,7.00
2007,05,03,00,10,6.90
2007,05,03,00,11,6.90
2007,05,03,00,12,6.80
2007,05,03,00,13,6.80
2007,05,03,00,14,6.80
2007,05,03,00,15,6.70
2007,05,03,00,16,6.70
2007,05,03,00,17,6.70
2007,05,03,00,18,6.70
2007,05,03,00,19,6.60
2007,05,03,00,20,6.60
2007,05,03,00,21,6.60
2007,05,03,00,22,6.60
2007,05,03,00,23,6.50
2007,05,03,00,24,6.50
2007,05,03,00,25,6.40
2007,05,03,00,26,6.40
2007,05,03,00,27,6.30
2007,05,03,00,28,6.30
2007,05,03,00,29,6.30
2007,05,03,00,30,6.20
2007,05,03,00,31,6.20
2007,05,03,00,32,6.20
2007,05,03,00,33,6.20
2007,05,03,00,34,6.10
2007,05,03,00,35,6.10
2007,05,03,00,36,6.10
2007,05,03,00,37,6.00
2007,05,03,00,38,6.00
2007,05,03,00,39,5.90
2007,05,03,00,40,5.90
2007,05,03,00,41,5.90
2007,05,03,00,42,5.90
2007,05,03,00,43,5.90
2007,05,03,00,44,5.90
2007,05,03,00,45,5.90
2007,05,03,00,46,5.90
2007,05,03,00,47,5.90
2007,05,03,00,48,5.90
2007,05,03,00,49,5.90
2007,05,03,00,50,6.00
2007,05,03,00,51,6.00
2007,05,03,00,52,5.90
2007,05,03,00,53,5.90
2007,05,03,00,54,5.90
2007,05,03,00,55,5.90
2007,05,03,00,56,5.90
2007,05,03,00,57,5.90
2007,05,03,00,58,5.90
2007,05,03,00,59,5.90
2007,05,03,01,00,5.80
2007,05,03,01,01,5.80
2007,05,03,01,02,5.80
2007,05,03,01,03,5.70
2007,05,03,01,04,5.70
2007,05,03,01,05,5.70
2007,05,03,01,06,5.60
2007,05,03,01,07,5.60
2007,05,03,01,08,5.60
2007,05,03,01,09,5.60
2007,05,03,01,10,5.50
2007,05,03,01,11,5.50
2007,05,03,01,12,5.50
2007,05,03,01,13,5.50
2007,05,03,01,14,5.40
2007,05,03,01,15,5.40
2007,05,03,01,16,5.40
2007,05,03,01,17,5.40
2007,05,03,01,18,5.40
2007,05,03,01,19,5.40
2007,05,03,01,20,5.40
2007,05,03,01,21,5.40
2007,05,03,01,22,5.30
2007,05,03,01,23,5.30
2007,05,03,01,24,5.30
2007,05,03,01,25,5.30
2007,05,03,01,26,5.20
2007,05,03,01,27,5.20
2007,05,03,01,28,5.20
2007,05,03,01,29,5.20
2007,05,03,01,30,5.20
2007,05,03,01,31,5.10
2007,05,03,01,32,5.10
2007,05,03,01,33,5.10
2007,05,03,01,34,5.00
2007,05,03,01,35,5.00
2007,05,03,01,36,4.90
2007,05,03,01,37,4.90
2007,05,03,01,38,4.90
2007,05,03,01,39,4.90
2007,05,03,01,40,4.90
2007,05,03,01,41,4.90
2007,05,03,01,42,4.80
2007,05,03,01,43,4.80
2007,05,03,01,44,4.80
2007,05,03,01,45,4.80
2007,05,03,01,46,4.80
2007,05,03,01,47,4.80
2007,05,03,01,48,4.80
2007,05,03,01,49,4.80
2007,05,03,01,50,4.90
2007,05,03,01,51,4.90
2007,05,03,01,52,4.90
2007,05,03,01,53,4.80
2007,05,03,01,54,4.80
2007,05,03,01,55,4.80
2007,05,03,01,56,4.70
2007,05,03,01,57,4.70
2007,05,03,01,58,4.70
2007,05,03,01,59,4.70
2007,05,03,02,00,4.60
2007,05,03,02,01,4.60
2007,05,03,02,02,4.60
2007,05,03,02,03,4.60
2007,05,03,02,04,4.60
2007,05,03,02,05,4.60
2007,05,03,02,06,4.60
2007,05,03,02,07,4.60
2007,05,03,02,08,4.50
2007,05,03,02,09,4.50
2007,05,03,02,10,4.50
2007,05,03,02,11,4.50
2007,05,03,02,12,4.50
2007,05,03,02,13,4.40
2007,05,03,02,14,4.40
2007,05,03,02,15,4.40
2007,05,03,02,16,4.40
2007,05,03,02,17,4.30
2007,05,03,02,18,4.30
2007,05,03,02,19,4.30
2007,05,03,02,20,4.30
2007,05,03,02,21,4.30
2007,05,03,02,22,4.30
2007,05,03,02,23,4.30
2007,05,03,02,24,4.40
2007,05,03,02,25,4.40
2007,05,03,02,26,4.40
2007,05,03,02,27,4.50
2007,05,03,02,28,4.50
2007,05,03,02,29,4.50
2007,05,03,02,30,4.50
2007,05,03,02,31,4.50
2007,05,03,02,32,4.50
2007,05,03,02,33,4.60
2007,05,03,02,34,4.60
2007,05,03,02,35,4.60
2007,05,03,02,36,4.60
2007,05,03,02,37,4.60
2007,05,03,02,38,4.60
2007,05,03,02,39,4.60
2007,05,03,02,40,4.60
2007,05,03,02,41,4.60
2007,05,03,02,42,4.60
2007,05,03,02,43,4.60
2007,05,03,02,44,4.60
2007,05,03,02,45,4.60
2007,05,03,02,46,4.70
2007,05,03,02,47,4.70
2007,05,03,02,48,4.70
2007,05,03,02,49,4.70
2007,05,03,02,50,4.70
2007,05,03,02,51,4.70
2007,05,03,02,52,4.70
2007,05,03,02,53,4.70
2007,05,03,02,54,4.70
2007,05,03,02,55,4.60
2007,05,03,02,56,4.60
2007,05,03,02,57,4.50
2007,05,03,02,58,4.40
2007,05,03,02,59,4.30
2007,05,03,03,00,4.20
2007,05,03,03,01,4.10
2007,05,03,03,02,4.00
2007,05,03,03,03,3.90
2007,05,03,03,04,3.90
2007,05,03,03,05,3.80
2007,05,03,03,06,3.80
2007,05,03,03,07,3.70
2007,05,03,03,08,3.70
2007,05,03,03,09,3.60
2007,05,03,03,10,3.60
2007,05,03,03,11,3.60
2007,05,03,03,12,3.60
2007,05,03,03,13,3.60
2007,05,03,03,14,3.60
2007,05,03,03,15,3.60
2007,05,03,03,16,3.60
2007,05,03,03,17,3.60
2007,05,03,03,18,3.60
2007,05,03,03,19,3.60
2007,05,03,03,20,3.60
2007,05,03,03,21,3.60
2007,05,03,03,22,3.60
2007,05,03,03,23,3.50
2007,05,03,03,24,3.50
2007,05,03,03,25,3.50
2007,05,03,03,26,3.50
2007,05,03,03,27,3.50
2007,05,03,03,28,3.50
2007,05,03,03,29,3.50
2007,05,03,03,30,3.60
2007,05,03,03,31,3.60
2007,05,03,03,32,3.60
2007,05,03,03,33,3.70
2007,05,03,03,34,3.70
2007,05,03,03,35,3.70
2007,05,03,03,36,3.70
2007,05,03,03,37,3.70
2007,05,03,03,38,3.70
2007,05,03,03,39,3.60
2007,05,03,03,40,3.60
2007,05,03,03,41,3.60
2007,05,03,03,42,3.60
2007,05,03,03,43,3.60
2007,05,03,03,44,3.60
2007,05,03,03,45,3.60
2007,05,03,03,46,3.60
2007,05,03,03,47,3.60
2007,05,03,03,48,3.60
2007,05,03,03,49,3.60
2007,05,03,03,50,3.70
2007,05,03,03,51,3.70
2007,05,03,03,52,3.70
2007,05,03,03,53,3.70
2007,05,03,03,54,3.70
2007,05,03,03,55,3.70
2007,05,03,03,56,3.70
2007,05,03,03,57,3.70
2007,05,03,03,58,3.70
2007,05,03,03,59,3.70
2007,05,03,04,00,3.70
2007,05,03,04,01,3.80
2007,05,03,04,02,3.80
2007,05,03,04,03,3.80
2007,05,03,04,04,3.80
2007,05,03,04,05,3.80
2007,05,03,04,06,3.80
2007,05,03,04,07,3.80
2007,05,03,04,08,3.80
2007,05,03,04,09,3.80
2007,05,03,04,10,3.80
2007,05,03,04,11,3.80
2007,05,03,04,12,3.80
2007,05,03,04,13,3.80
2007,05,03,04,14,3.80
2007,05,03,04,15,3.80
2007,05,03,04,16,3.70
2007,05,03,04,17,3.70
2007,05,03,04,18,3.70
2007,05,03,04,19,3.70
2007,05,03,04,20,3.70
2007,05,03,04,21,3.70
2007,05,03,04,22,3.70
2007,05,03,04,23,3.70
2007,05,03,04,24,3.70
2007,05,03,04,25,3.70
2007,05,03,04,26,3.60
2007,05,03,04,27,3.60
2007,05,03,04,28,3.60
2007,05,03,04,29,3.60
2007,05,03,04,30,3.70
2007,05,03,04,31,3.70
2007,05,03,04,32,3.80
2007,05,03,04,33,3.80
2007,05,03,04,34,3.80
2007,05,03,04,35,3.80
2007,05,03,04,36,3.90
2007,05,03,04,37,3.90
2007,05,03,04,38,3.90
2007,05,03,04,39,3.90
2007,05,03,04,40,4.00
2007,05,03,04,41,4.00
2007,05,03,04,42,4.10
2007,05,03,04,43,4.10
2007,05,03,04,44,4.20
2007,05,03,04,45,4.20
2007,05,03,04,46,4.20
2007,05,03,04,47,4.20
2007,05,03,04,48,4.20
2007,05,03,04,49,4.20
2007,05,03,04,50,4.10
2007,05,03,04,51,4.10
2007,05,03,04,52,4.00
2007,05,03,04,53,4.00
2007,05,03,04,54,3.90
2007,05,03,04,55,3.90
2007,05,03,04,56,3.90
2007,05,03,04,57,3.80
2007,05,03,04,58,3.80
2007,05,03,04,59,3.80
2007,05,03,05,00,3.80
2007,05,03,05,01,3.80
2007,05,03,05,02,3.80
2007,05,03,05,03,3.80
2007,05,03,05,04,3.80
2007,05,03,05,05,3.80
2007,05,03,05,06,3.80
2007,05,03,05,07,3.90
2007,05,03,05,08,4.00
2007,05,03,05,09,4.10
2007,05,03,05,10,4.20
2007,05,03,05,11,4.10
2007,05,03,05,12,4.10
2007,05,03,05,13,4.10
2007,05,03,05,14,4.00
2007,05,03,05,15,4.00
2007,05,03,05,16,4.00
2007,05,03,05,17,4.00
2007,05,03,05,18,3.90
2007,05,03,05,19,3.90
2007,05,03,05,20,3.90
2007,05,03,05,21,3.90
2007,05,03,05,22,3.90
2007,05,03,05,23,3.90
2007,05,03,05,24,3.90
2007,05,03,05,25,3.90
2007,05,03,05,26,3.90
2007,05,03,05,27,3.90
2007,05,03,05,28,3.90
2007,05,03,05,29,3.90
2007,05,03,05,30,3.90
2007,05,03,05,31,3.90
2007,05,03,05,32,3.90
2007,05,03,05,33,3.90
2007,05,03,05,34,3.80
2007,05,03,05,35,3.80
2007,05,03,05,36,3.80
2007,05,03,05,37,3.80
2007,05,03,05,38,3.80
2007,05,03,05,39,3.80
2007,05,03,05,40,3.80
2007,05,03,05,41,3.80
2007,05,03,05,42,3.80
2007,05,03,05,43,3.80
2007,05,03,05,44,3.80
2007,05,03,05,45,3.80
2007,05,03,05,46,3.80
2007,05,03,05,47,3.80
2007,05,03,05,48,3.80
2007,05,03,05,49,3.80
2007,05,03,05,50,3.70
2007,05,03,05,51,3.70
2007,05,03,05,52,3.70
2007,05,03,05,53,3.70
2007,05,03,05,54,3.70
2007,05,03,05,55,3.70
2007,05,03,05,56,3.70
2007,05,03,05,57,3.70
2007,05,03,05,58,3.70
2007,05,03,05,59,3.80
2007,05,03,06,00,3.80
2007,05,03,06,01,3.80
2007,05,03,06,02,3.80
2007,05,03,06,03,3.80
2007,05,03,06,04,3.80
2007,05,03,06,05,3.90
2007,05,03,06,06,3.90
2007,05,03,06,07,3.80
2007,05,03,06,08,3.80
2007,05,03,06,09,3.90
2007,05,03,06,10,3.90
2007,05,03,06,11,4.00
2007,05,03,06,12,4.00
2007,05,03,06,13,4.10
2007,05,03,06,14,4.10
2007,05,03,06,15,4.20
2007,05,03,06,16,4.20
2007,05,03,06,17,4.20
2007,05,03,06,18,4.20
2007,05,03,06,19,4.20
2007,05,03,06,20,4.30
2007,05,03,06,21,4.30
2007,05,03,06,22,4.30
2007,05,03,06,23,4.30
2007,05,03,06,24,4.40
2007,05,03,06,25,4.40
2007,05,03,06,26,4.40
2007,05,03,06,27,4.50
2007,05,03,06,28,4.50
2007,05,03,06,29,4.60
2007,05,03,06,30,4.60
2007,05,03,06,31,4.60
2007,05,03,06,32,4.70
2007,05,03,06,33,4.70
2007,05,03,06,34,4.80
2007,05,03,06,35,4.80
2007,05,03,06,36,4.80
2007,05,03,06,37,4.80
2007,05,03,06,38,4.90
2007,05,03,06,39,4.90
2007,05,03,06,40,5.00
2007,05,03,06,41,5.00
2007,05,03,06,42,5.00
2007,05,03,06,43,5.10
2007,05,03,06,44,5.10
2007,05,03,06,45,5.20
2007,05,03,06,46,5.20
2007,05,03,06,47,5.20
2007,05,03,06,48,5.30
2007,05,03,06,49,5.30
2007,05,03,06,50,5.30
2007,05,03,06,51,5.40
2007,05,03,06,52,5.40
2007,05,03,06,53,5.50
2007,05,03,06,54,5.50
2007,05,03,06,55,5.60
2007,05,03,06,56,5.60
2007,05,03,06,57,5.60
2007,05,03,06,58,5.70
2007,05,03,06,59,5.70
2007,05,03,07,00,5.70
2007,05,03,07,01,5.80
2007,05,03,07,02,5.80
2007,05,03,07,03,5.80
2007,05,03,07,04,5.90
2007,05,03,07,05,5.90
2007,05,03,07,06,5.90
2007,05,03,07,07,6.00
2007,05,03,07,08,6.00
2007,05,03,07,09,6.10
2007,05,03,07,10,6.10
2007,05,03,07,11,6.20
2007,05,03,07,12,6.20
2007,05,03,07,13,6.30
2007,05,03,07,14,6.40
2007,05,03,07,15,6.50
2007,05,03,07,16,6.60
2007,05,03,07,17,6.70
2007,05,03,07,18,6.80
2007,05,03,07,19,6.90
2007,05,03,07,20,7.00
2007,05,03,07,21,7.00
2007,05,03,07,22,7.10
2007,05,03,07,23,7.10
2007,05,03,07,24,7.20
2007,05,03,07,25,7.20
2007,05,03,07,26,7.20
2007,05,03,07,27,7.20
2007,05,03,07,28,7.20
2007,05,03,07,29,7.20
2007,05,03,07,30,7.30
2007,05,03,07,31,7.30
2007,05,03,07,32,7.40
2007,05,03,07,33,7.40
2007,05,03,07,34,7.40
2007,05,03,07,35,7.40
2007,05,03,07,36,7.50
2007,05,03,07,37,7.50
2007,05,03,07,38,7.50
2007,05,03,07,39,7.40
2007,05,03,07,40,7.40
2007,05,03,07,41,7.40
2007,05,03,07,42,7.40
2007,05,03,07,43,7.30
2007,05,03,07,44,7.30
2007,05,03,07,45,7.30
2007,05,03,07,46,7.20
2007,05,03,07,47,7.20
2007,05,03,07,48,7.20
2007,05,03,07,49,7.20
2007,05,03,07,50,7.20
2007,05,03,07,51,7.20
2007,05,03,07,52,7.20
2007,05,03,07,53,7.20
2007,05,03,07,54,7.20
2007,05,03,07,55,7.20
2007,05,03,07,56,7.30
2007,05,03,07,57,7.40
2007,05,03,07,58,7.40
2007,05,03,07,59,7.50
2007,05,03,08,00,7.50
2007,05,03,08,01,7.60
2007,05,03,08,02,7.60
2007,05,03,08,03,7.60
2007,05,03,08,04,7.70
2007,05,03,08,05,7.80
2007,05,03,08,06,7.80
2007,05,03,08,07,7.90
2007,05,03,08,08,7.90
2007,05,03,08,09,8.00
2007,05,03,08,10,8.00
2007,05,03,08,11,8.10
2007,05,03,08,12,8.10
2007,05,03,08,13,8.10
2007,05,03,08,14,8.20
2007,05,03,08,15,8.30
2007,05,03,08,16,8.40
2007,05,03,08,17,8.40
2007,05,03,08,18,8.40
2007,05,03,08,19,8.40
2007,05,03,08,20,8.40
2007,05,03,08,21,8.40
2007,05,03,08,22,8.50
2007,05,03,08,23,8.50
2007,05,03,08,24,8.60
2007,05,03,08,25,8.60
2007,05,03,08,26,8.70
2007,05,03,08,27,8.80
2007,05,03,08,28,8.90
2007,05,03,08,29,8.90
2007,05,03,08,30,8.90
2007,05,03,08,31,9.00
2007,05,03,08,32,9.00
2007,05,03,08,33,9.10
2007,05,03,08,34,9.10
2007,05,03,08,35,9.10
2007,05,03,08,36,9.10
2007,05,03,08,37,9.20
2007,05,03,08,38,9.30
2007,05,03,08,39,9.30
2007,05,03,08,40,9.40
2007,05,03,08,41,9.50
2007,05,03,08,42,9.50
2007,05,03,08,43,9.40
2007,05,03,08,44,9.40
2007,05,03,08,45,9.40
2007,05,03,08,46,9.40
2007,05,03,08,47,9.40
2007,05,03,08,48,9.40
2007,05,03,08,49,9.40
2007,05,03,08,50,9.50
2007,05,03,08,51,9.60
2007,05,03,08,52,9.70
2007,05,03,08,53,9.90
2007,05,03,08,54,9.90
2007,05,03,08,55,9.90
2007,05,03,08,56,9.80
2007,05,03,08,57,9.80
2007,05,03,08,58,9.80
2007,05,03,08,59,9.80
2007,05,03,09,00,9.80
2007,05,03,09,01,9.80
2007,05,03,09,02,9.80
2007,05,03,09,03,9.80
2007,05,03,09,04,9.80
2007,05,03,09,05,9.90
2007,05,03,09,06,9.90
2007,05,03,09,07,10.00
2007,05,03,09,08,10.00
2007,05,03,09,09,10.10
2007,05,03,09,10,10.20
2007,05,03,09,11,10.20
2007,05,03,09,12,10.30
2007,05,03,09,13,10.30
2007,05,03,09,14,10.20
2007,05,03,09,15,10.10
2007,05,03,09,16,10.00
2007,05,03,09,17,9.90
2007,05,03,09,18,9.80
2007,05,03,09,19,9.80
2007,05,03,09,20,9.80
2007,05,03,09,21,9.80
2007,05,03,09,22,9.80
2007,05,03,09,23,9.80
2007,05,03,09,24,9.80
2007,05,03,09,25,9.80
2007,05,03,09,26,9.70
2007,05,03,09,27,9.70
2007,05,03,09,28,9.70
2007,05,03,09,29,9.70
2007,05,03,09,30,9.70
2007,05,03,09,31,9.80
2007,05,03,09,32,9.80
2007,05,03,09,33,9.80
2007,05,03,09,34,9.80
2007,05,03,09,35,9.90
2007,05,03,09,36,9.90
2007,05,03,09,37,9.90
2007,05,03,09,38,9.80
2007,05,03,09,39,9.80
2007,05,03,09,40,9.80
2007,05,03,09,41,9.80
2007,05,03,09,42,9.80
2007,05,03,09,43,9.70
2007,05,03,09,44,9.70
2007,05,03,09,45,9.60
2007,05,03,09,46,9.70
2007,05,03,09,47,9.60
2007,05,03,09,48,9.60
2007,05,03,09,49,9.60
2007,05,03,09,50,9.50
2007,05,03,09,51,9.50
2007,05,03,09,52,9.30
2007,05,03,09,53,9.30
2007,05,03,09,54,9.30
2007,05,03,09,55,9.40
2007,05,03,09,56,9.50
2007,05,03,09,57,9.50
2007,05,03,09,58,9.50
2007,05,03,09,59,9.40
2007,05,03,10,00,9.50
2007,05,03,10,01,9.50
2007,05,03,10,02,9.60
2007,05,03,10,03,9.80
2007,05,03,10,04,10.00
2007,05,03,10,05,10.10
2007,05,03,10,06,10.20
2007,05,03,10,07,10.30
2007,05,03,10,08,10.20
2007,05,03,10,09,10.10
2007,05,03,10,10,10.00
2007,05,03,10,11,10.00
2007,05,03,10,12,10.00
2007,05,03,10,13,10.10
2007,05,03,10,14,10.10
2007,05,03,10,15,10.30
2007,05,03,10,16,10.40
2007,05,03,10,17,10.30
2007,05,03,10,18,10.20
2007,05,03,10,19,10.20
2007,05,03,10,20,10.20
2007,05,03,10,21,10.30
2007,05,03,10,22,10.40
2007,05,03,10,23,10.40
2007,05,03,10,24,10.50
2007,05,03,10,25,10.50
2007,05,03,10,26,10.50
2007,05,03,10,27,10.60
2007,05,03,10,28,10.60
2007,05,03,10,29,10.70
2007,05,03,10,30,10.70
2007,05,03,10,31,10.70
2007,05,03,10,32,10.80
2007,05,03,10,33,10.70
2007,05,03,10,34,10.60
2007,05,03,10,35,10.50
2007,05,03,10,36,10.40
2007,05,03,10,37,10.40
2007,05,03,10,38,10.30
2007,05,03,10,39,10.20
2007,05,03,10,40,10.10
2007,05,03,10,41,10.00
2007,05,03,10,42,9.90
2007,05,03,10,43,9.80
2007,05,03,10,44,9.70
2007,05,03,10,45,9.70
2007,05,03,10,46,9.70
2007,05,03,10,47,9.70
2007,05,03,10,48,9.80
2007,05,03,10,49,9.80
2007,05,03,10,50,9.70
2007,05,03,10,51,9.70
2007,05,03,10,52,9.70
2007,05,03,10,53,9.60
2007,05,03,10,54,9.50
2007,05,03,10,55,9.40
2007,05,03,10,56,9.30
2007,05,03,10,57,9.20
2007,05,03,10,58,9.20
2007,05,03,10,59,9.10
2007,05,03,11,00,9.10
2007,05,03,11,01,9.10
2007,05,03,11,02,9.10
2007,05,03,11,03,9.10
2007,05,03,11,04,9.00
2007,05,03,11,05,9.00
2007,05,03,11,06,8.90
2007,05,03,11,07,8.90
2007,05,03,11,08,8.90
2007,05,03,11,09,8.90
2007,05,03,11,10,8.90
2007,05,03,11,11,8.90
2007,05,03,11,12,8.90
2007,05,03,11,13,8.90
2007,05,03,11,14,8.90
2007,05,03,11,15,8.90
2007,05,03,11,16,8.90
2007,05,03,11,17,8.90
2007,05,03,11,18,8.90
2007,05,03,11,19,8.80
2007,05,03,11,20,8.80
2007,05,03,11,21,8.80
2007,05,03,11,22,8.80
2007,05,03,11,23,8.70
2007,05,03,11,24,8.60
2007,05,03,11,25,8.50
2007,05,03,11,26,8.50
2007,05,03,11,27,8.40
2007,05,03,11,28,8.30
2007,05,03,11,29,8.20
2007,05,03,11,30,8.20
2007,05,03,11,31,8.10
2007,05,03,11,32,8.00
2007,05,03,11,33,7.90
2007,05,03,11,34,7.80
2007,05,03,11,35,7.80
2007,05,03,11,36,7.70
2007,05,03,11,37,7.70
2007,05,03,11,38,7.70
2007,05,03,11,39,7.70
2007,05,03,11,40,7.70
2007,05,03,11,41,7.70
2007,05,03,11,42,7.60
2007,05,03,11,43,7.60
2007,05,03,11,44,7.60
2007,05,03,11,45,7.60
2007,05,03,11,46,7.60
2007,05,03,11,47,7.50
2007,05,03,11,48,7.50
2007,05,03,11,49,7.40
2007,05,03,11,50,7.40
2007,05,03,11,51,7.40
2007,05,03,11,52,7.30
2007,05,03,11,53,7.30
2007,05,03,11,54,7.30
2007,05,03,11,55,7.30
2007,05,03,11,56,7.20
2007,05,03,11,57,7.20
2007,05,03,11,58,7.20
2007,05,03,11,59,7.20
2007,05,03,12,00,7.20
2007,05,03,12,01,7.20
2007,05,03,12,02,7.20
2007,05,03,12,03,7.20
2007,05,03,12,04,7.20
2007,05,03,12,05,7.20
2007,05,03,12,06,7.20
2007,05,03,12,07,7.20
2007,05,03,12,08,7.10
2007,05,03,12,09,7.10
2007,05,03,12,10,7.10
2007,05,03,12,11,7.10
2007,05,03,12,12,7.10
2007,05,03,12,13,7.10
2007,05,03,12,14,7.10
2007,05,03,12,15,7.10
2007,05,03,12,16,7.10
2007,05,03,12,17,7.10
2007,05,03,12,18,7.10
2007,05,03,12,19,7.10
2007,05,03,12,20,7.10
2007,05,03,12,21,7.10
2007,05,03,12,22,7.20
2007,05,03,12,23,7.20
2007,05,03,12,24,7.20
2007,05,03,12,25,7.30
2007,05,03,12,26,7.40
2007,05,03,12,27,7.60
2007,05,03,12,28,7.70
2007,05,03,12,29,7.80
2007,05,03,12,30,7.90
2007,05,03,12,31,8.00
2007,05,03,12,32,8.10
2007,05,03,12,33,8.20
2007,05,03,12,34,8.30
2007,05,03,12,35,8.40
2007,05,03,12,36,8.60
2007,05,03,12,37,8.70
2007,05,03,12,38,8.80
2007,05,03,12,39,8.90
2007,05,03,12,40,9.00
2007,05,03,12,41,9.00
2007,05,03,12,42,8.90
2007,05,03,12,43,8.90
2007,05,03,12,44,8.90
2007,05,03,12,45,8.90
2007,05,03,12,46,8.90
2007,05,03,12,47,8.90
2007,05,03,12,48,8.80
2007,05,03,12,49,8.70
2007,05,03,12,50,8.70
2007,05,03,12,51,8.60
2007,05,03,12,52,8.60
2007,05,03,12,53,8.50
2007,05,03,12,54,8.60
2007,05,03,12,55,8.60
2007,05,03,12,56,8.60
2007,05,03,12,57,8.60
2007,05,03,12,58,8.60
2007,05,03,12,59,8.60
2007,05,03,13,00,8.60
2007,05,03,13,01,8.60
2007,05,03,13,02,8.60
2007,05,03,13,03,8.60
2007,05,03,13,04,8.70
2007,05,03,13,05,8.70
2007,05,03,13,06,8.70
2007,05,03,13,07,8.60
2007,05,03,13,08,8.70
2007,05,03,13,09,8.70
2007,05,03,13,10,8.60
2007,05,03,13,11,8.60
2007,05,03,13,12,8.50
2007,05,03,13,13,8.50
2007,05,03,13,14,8.50
2007,05,03,13,15,8.40
2007,05,03,13,16,8.40
2007,05,03,13,17,8.40
2007,05,03,13,18,8.30
2007,05,03,13,19,8.30
2007,05,03,13,20,8.20
2007,05,03,13,21,8.20
2007,05,03,13,22,8.10
2007,05,03,13,23,8.10
2007,05,03,13,24,8.00
2007,05,03,13,25,8.00
2007,05,03,13,26,7.90
2007,05,03,13,27,7.90
2007,05,03,13,28,7.90
2007,05,03,13,29,7.90
2007,05,03,13,30,7.90
2007,05,03,13,31,7.90
2007,05,03,13,32,7.90
2007,05,03,13,33,7.90
2007,05,03,13,34,7.90
2007,05,03,13,35,7.90
2007,05,03,13,36,7.90
2007,05,03,13,37,8.00
2007,05,03,13,38,8.00
2007,05,03,13,39,8.00
2007,05,03,13,40,8.00
2007,05,03,13,41,8.00
2007,05,03,13,42,8.00
2007,05,03,13,43,8.00
2007,05,03,13,44,8.00
2007,05,03,13,45,8.00
2007,05,03,13,46,8.00
2007,05,03,13,47,8.00
2007,05,03,13,48,8.00
2007,05,03,13,49,8.00
2007,05,03,13,50,8.10
2007,05,03,13,51,8.10
2007,05,03,13,52,8.10
2007,05,03,13,53,8.10
2007,05,03,13,54,8.10
2007,05,03,13,55,8.10
2007,05,03,13,56,8.10
2007,05,03,13,57,8.10
2007,05,03,13,58,8.10
2007,05,03,13,59,8.10
2007,05,03,14,00,8.10
2007,05,03,14,01,8.10
2007,05,03,14,02,8.00
2007,05,03,14,03,8.00
2007,05,03,14,04,8.00
2007,05,03,14,05,8.00
2007,05,03,14,06,8.10
2007,05,03,14,07,8.00
2007,05,03,14,08,8.00
2007,05,03,14,09,8.00
2007,05,03,14,10,8.00
2007,05,03,14,11,7.90
2007,05,03,14,12,7.90
2007,05,03,14,13,7.90
2007,05,03,14,14,7.90
2007,05,03,14,15,7.90
2007,05,03,14,16,7.80
2007,05,03,14,17,7.80
2007,05,03,14,18,7.70
2007,05,03,14,19,7.70
2007,05,03,14,20,7.60
2007,05,03,14,21,7.60
2007,05,03,14,22,7.50
2007,05,03,14,23,7.50
2007,05,03,14,24,7.50
2007,05,03,14,25,7.50
2007,05,03,14,26,7.50
2007,05,03,14,27,7.50
2007,05,03,14,28,7.50
2007,05,03,14,29,7.50
2007,05,03,14,30,7.60
2007,05,03,14,31,7.60
2007,05,03,14,32,7.60
2007,05,03,14,33,7.60
2007,05,03,14,34,7.60
2007,05,03,14,35,7.70
2007,05,03,14,36,7.70
2007,05,03,14,37,7.70
2007,05,03,14,38,7.80
2007,05,03,14,39,7.80
2007,05,03,14,40,7.80
2007,05,03,14,41,7.90
2007,05,03,14,42,7.90
2007,05,03,14,43,8.00
2007,05,03,14,44,8.00
2007,05,03,14,45,8.10
2007,05,03,14,46,8.10
2007,05,03,14,47,8.10
2007,05,03,14,48,8.20
2007,05,03,14,49,8.20
2007,05,03,14,50,8.20
2007,05,03,14,51,8.30
2007,05,03,14,52,8.30
2007,05,03,14,53,8.30
2007,05,03,14,54,8.30
2007,05,03,14,55,8.40
2007,05,03,14,56,8.40
2007,05,03,14,57,8.40
2007,05,03,14,58,8.40
2007,05,03,14,59,8.50
2007,05,03,15,00,8.50
2007,05,03,15,01,8.50
2007,05,03,15,02,8.60
2007,05,03,15,03,8.60
2007,05,03,15,04,8.60
2007,05,03,15,05,8.70
2007,05,03,15,06,8.70
2007,05,03,15,07,8.80
2007,05,03,15,08,8.90
2007,05,03,15,09,9.00
2007,05,03,15,10,9.10
2007,05,03,15,11,9.20
2007,05,03,15,12,9.40
2007,05,03,15,13,9.50
2007,05,03,15,14,9.60
2007,05,03,15,15,9.60
2007,05,03,15,16,9.70
2007,05,03,15,17,9.60
2007,05,03,15,18,9.60
2007,05,03,15,19,9.50
2007,05,03,15,20,9.40
2007,05,03,15,21,9.40
2007,05,03,15,22,9.40
2007,05,03,15,23,9.40
2007,05,03,15,24,9.40
2007,05,03,15,25,9.40
2007,05,03,15,26,9.40
2007,05,03,15,27,9.40
2007,05,03,15,28,9.30
2007,05,03,15,29,9.20
2007,05,03,15,30,9.20
2007,05,03,15,31,9.10
2007,05,03,15,32,9.10
2007,05,03,15,33,9.00
2007,05,03,15,34,9.00
2007,05,03,15,35,8.90
2007,05,03,15,36,8.90
2007,05,03,15,37,8.80
2007,05,03,15,38,8.80
2007,05,03,15,39,8.80
2007,05,03,15,40,8.80
2007,05,03,15,41,8.80
2007,05,03,15,42,8.90
2007,05,03,15,43,8.90
2007,05,03,15,44,8.90
2007,05,03,15,45,8.90
2007,05,03,15,46,8.90
2007,05,03,15,47,8.80
2007,05,03,15,48,8.80
2007,05,03,15,49,8.80
2007,05,03,15,50,8.80
2007,05,03,15,51,8.80
2007,05,03,15,52,8.80
2007,05,03,15,53,8.80
2007,05,03,15,54,8.80
2007,05,03,15,55,8.80
2007,05,03,15,56,8.80
2007,05,03,15,57,8.70
2007,05,03,15,58,8.70
2007,05,03,15,59,8.70
2007,05,03,16,00,8.70
2007,05,03,16,01,8.70
2007,05,03,16,02,8.60
2007,05,03,16,03,8.60
2007,05,03,16,04,8.60
2007,05,03,16,05,8.60
2007,05,03,16,06,8.50
2007,05,03,16,07,8.50
2007,05,03,16,08,8.40
2007,05,03,16,09,8.40
2007,05,03,16,10,8.40
2007,05,03,16,11,8.30
2007,05,03,16,12,8.30
2007,05,03,16,13,8.30
2007,05,03,16,14,8.30
2007,05,03,16,15,8.30
2007,05,03,16,16,8.30
2007,05,03,16,17,8.30
2007,05,03,16,18,8.30
2007,05,03,16,19,8.30
2007,05,03,16,20,8.30
2007,05,03,16,21,8.30
2007,05,03,16,22,8.30
2007,05,03,16,23,8.20
2007,05,03,16,24,8.30
2007,05,03,16,25,8.20
2007,05,03,16,26,8.20
2007,05,03,16,27,8.20
2007,05,03,16,28,8.20
2007,05,03,16,29,8.20
2007,05,03,16,30,8.20
2007,05,03,16,31,8.20
2007,05,03,16,32,8.10
2007,05,03,16,33,8.10
2007,05,03,16,34,8.10
2007,05,03,16,35,8.10
2007,05,03,16,36,8.00
2007,05,03,16,37,8.00
2007,05,03,16,38,8.00
2007,05,03,16,39,8.00
2007,05,03,16,40,7.90
2007,05,03,16,41,7.90
2007,05,03,16,42,7.90
2007,05,03,16,43,7.80
2007,05,03,16,44,7.80
2007,05,03,16,45,7.80
2007,05,03,16,46,7.80
2007,05,03,16,47,7.80
2007,05,03,16,48,7.80
2007,05,03,16,49,7.80
2007,05,03,16,50,7.90
2007,05,03,16,51,7.90
2007,05,03,16,52,7.90
2007,05,03,16,53,8.00
2007,05,03,16,54,8.00
2007,05,03,16,55,8.10
2007,05,03,16,56,8.10
2007,05,03,16,57,8.10
2007,05,03,16,58,8.20
2007,05,03,16,59,8.20
2007,05,03,17,00,8.20
2007,05,03,17,01,8.20
2007,05,03,17,02,8.20
2007,05,03,17,03,8.20
2007,05,03,17,04,8.20
2007,05,03,17,05,8.20
2007,05,03,17,06,8.20
2007,05,03,17,07,8.30
2007,05,03,17,08,8.30
2007,05,03,17,09,8.30
2007,05,03,17,10,8.30
2007,05,03,17,11,8.30
2007,05,03,17,12,8.30
2007,05,03,17,13,8.30
2007,05,03,17,14,8.30
2007,05,03,17,15,8.30
2007,05,03,17,16,8.30
2007,05,03,17,17,8.30
2007,05,03,17,18,8.30
2007,05,03,17,19,8.30
2007,05,03,17,20,8.40
2007,05,03,17,21,8.40
2007,05,03,17,22,8.40
2007,05,03,17,23,8.40
2007,05,03,17,24,8.40
2007,05,03,17,25,8.40
2007,05,03,17,26,8.40
2007,05,03,17,27,8.40
2007,05,03,17,28,8.40
2007,05,03,17,29,8.50
2007,05,03,17,30,8.50
2007,05,03,17,31,8.50
2007,05,03,17,32,8.50
2007,05,03,17,33,8.60
2007,05,03,17,34,8.60
2007,05,03,17,35,8.60
2007,05,03,17,36,8.70
2007,05,03,17,37,8.80
2007,05,03,17,38,8.90
2007,05,03,17,39,8.90
2007,05,03,17,40,8.90
2007,05,03,17,41,8.90
2007,05,03,17,42,8.90
2007,05,03,17,43,9.00
2007,05,03,17,44,9.10
2007,05,03,17,45,9.20
2007,05,03,17,46,9.30
2007,05,03,17,47,9.40
2007,05,03,17,48,9.50
2007,05,03,17,49,9.70
2007,05,03,17,50,9.90
2007,05,03,17,51,9.90
2007,05,03,17,52,9.90
2007,05,03,17,53,9.90
2007,05,03,17,54,9.90
2007,05,03,17,55,9.90
2007,05,03,17,56,9.90
2007,05,03,17,57,10.00
2007,05,03,17,58,10.10
2007,05,03,17,59,10.20
2007,05,03,18,00,10.30
2007,05,03,18,01,10.30
2007,05,03,18,02,10.30
2007,05,03,18,03,10.20
2007,05,03,18,04,10.20